Flag for Philippines Weather past 2 weeks in Mabalacat, Philippines

Now
79 °F

Mostly cloudy.


Feels Like: 82 °F
Forecast: 80 / 93 °F
Wind: 2 mph from West

Location: Clarkfield Pampanga International Airport

Current Time: Apr 29, 2015 at 4:36:07 AM

Latest Report: Apr 29, 2015 at 4:00 AM


Visibility: N/A

Pressure: 29.86 "Hg

Humidity: 89%

Dew point: 75 °F

Location of MabalacatLocation

Historic Weather in Mabalacat — Graph

°F

Mabalacat temperature yesterday

Maximum temperature yesterday: 93 °F (at 2:00 PM)
Minimum temperature yesterday: 77 °F (at 5:00 AM)
Average temperature yesterday: 84 °F

Past Weeks' High & Low Weather Summary

 TemperatureHumidityPressure
High95 °F (Apr 16, 2:00 PM)100% (Apr 16, 7:00 PM)30.04 "Hg (Apr 16, 7:00 PM)
Low46 °F (Apr 27, 10:00 PM)36% (Apr 27, 4:00 PM)29.80 "Hg (Apr 19, 4:00 PM)
Average83 °F70%29.91 "Hg
* Reported Midnight between Apr 13 and Apr 14 — Midnight between Apr 28 and Apr 29, Mabalacat, Weather by CustomWeather, © 2015

Note: Actual official high and low records may vary slightly from our data, if they occured in-between our weather recording intervals... More about our weather records

Advertising

Mabalacat weather history for previous 24 hours

 ConditionsComfort  
Time TempWeatherWind HumidityBarometerVisibility
12:00 AM
Wed, Apr 29
81 °FPassing clouds.2 mph84%29.89 "HgN/A
11:00 PM
Tue, Apr 28
81 °FPassing clouds.2 mph84%29.92 "HgN/A
10:00 PM82 °FPassing clouds.2 mph74%29.92 "HgN/A
9:00 PM82 °FPassing clouds.2 mph74%29.89 "HgN/A
5:00 PM91 °FBroken clouds.6 mph49%29.83 "HgN/A
3:00 PM93 °FBroken clouds.7 mph41%29.83 "HgN/A
2:00 PM93 °FBroken clouds.3 mph41%29.83 "HgN/A
1:00 PM91 °FBroken clouds.5 mph44%29.86 "HgN/A
12:00 PM90 °FPartly sunny.5 mph49%29.89 "HgN/A
11:00 AM88 °FBroken clouds.3 mph55%29.89 "HgN/A
10:00 AM88 °FBroken clouds.6 mph55%29.92 "HgN/A
9:00 AM86 °FScattered clouds.3 mph62%29.92 "HgN/A
8:00 AM82 °FScattered clouds.5 mph70%29.92 "HgN/A
7:00 AM79 °FScattered clouds.2 mph84%29.92 "HgN/A
6:00 AM77 °FScattered clouds.2 mph83%29.89 "HgN/A
5:00 AM77 °FPassing clouds.2 mph83%29.86 "HgN/A
Weather by CustomWeather, © 2015

See weather overviewHow to use our weather pages